Regional Weather Roundup
Issued by NWS

Home | Current Version | Previous Version | Graphics & Text | Print | Product List | Glossary On
Versions: 1 2 3 4 5 6 7 8 9 10 11 12 13 14 15 16 17 18 19 20 21 22 23 24 25 26 27 28 29 30 31 32 33 34 35 36 37 38 39 40 41 42 43 44 45 46 47 48 49 50
000
ASUS43 KIND 240759
RWRIN

WEATHER ROUNDUP FOR INDIANA
NATIONAL WEATHER SERVICE INDIANAPOLIS IN
400 AM EDT SUN MAY 24 2015

NOTE: "FAIR" INDICATES FEW OR NO CLOUDS BELOW 12,000 FEET WITH NO
SIGNIFICANT WEATHER AND/OR OBSTRUCTIONS TO VISIBILITY.

* - STATION DOES NOT REPORT WEATHER SUCH AS PRECIPITATION OR FOG.

+ - STATION NOT QUALITY CONTROLLED BY THE NATIONAL WEATHER SERVICE.
    USE DATA WITH CAUTION...ESPECIALLY DEWPOINT AND RELATIVE
    HUMIDITY OBSERVATIONS.

INZ001>003-010>013-019-020-240900-
NORTHWEST INDIANA

CITY           SKY/WX    TMP DP  RH WIND       PRES   REMARKS
MONTICELLO +   PTCLDY    61  48  62 SE5       30.21S

$$

LMZ046-743>745-240900-
SOUTHERN LAKE MICHIGAN

STATION/POSITION TIME  TEMP    WIND        PRES    WAVE
                       AIR SEA DIR/SP/G            HT
                 (UTC) (F)     (DEG/KT/KT) (MB)    (FT)
BURNS HARBOR     0700   65     180/  5/  9 1023.0S
MICHIGAN CITY    0700   67     140/  9/ 11   N/A
5NW MICH CITY    0700   61 54  180/  4/  6   N/A     0

$$

INZ004-005-014>016-021>024-240900-
NORTH CENTRAL INDIANA

CITY           SKY/WX    TMP DP  RH WIND       PRES   REMARKS
GOSHEN         CLEAR     51  46  83 SE3       30.23S
SOUTH BEND     PTCLDY    57  47  69 CALM      30.23S
WARSAW +       FAIR      52  48  87 CALM      30.24S

$$

INZ006>009-017-018-025>027-240900-
NORTHEAST INDIANA

CITY           SKY/WX    TMP DP  RH WIND       PRES   REMARKS
ANGOLA *+      CLEAR     52  50  93 CALM      30.25S
FORT WAYNE     MOCLDY    56  48  74 CALM      30.25F

$$

INZ028-029-035-036-043>045-051>053-240900-
WEST CENTRAL INDIANA

CITY           SKY/WX    TMP DP  RH WIND       PRES   REMARKS
GREENCASTLE +  CLOUDY    59  43  55 CALM      30.23R
LAFAYETTE      PTCLDY    58  49  72 E3        30.20F
TERRE HAUTE    CLOUDY    63  51  65 SE3       30.20S

$$

INZ030>032-037>040-046>048-054>057-064-065-240900-
CENTRAL INDIANA

CITY           SKY/WX    TMP DP  RH WIND       PRES   REMARKS
INDIANAPOLIS   PTCLDY    61  47  59 SE9       30.21S
-EAGLE CREEK   PTCLDY    57  48  72 CALM      30.23R
KOKOMO *+      CLEAR     55  46  71 S6        30.24R
MT COMFORT *+  CLEAR     61  37  41 SE3       30.24S
SHELBYVILLE    CLEAR     64  48  56 SE7       30.23S

$$

INZ033-034-041-042-049-050-058-059-240900-
EAST CENTRAL INDIANA

CITY           SKY/WX    TMP DP  RH WIND       PRES   REMARKS
MUNCIE         PTCLDY    61  46  57 S6        30.25R

$$

INZ060-061-067>069-081>083-085>088-240900-
SOUTHWEST INDIANA

CITY           SKY/WX    TMP DP  RH WIND       PRES   REMARKS
EVANSVILLE     MOCLDY    61  54  77 NE5       30.19S
HUNTINGBURG *+ PTCLDY    63  48  59 SE7       30.21S

$$

INZ062-063-066-070>080-084-089>092-240900-
SOUTH CENTRAL AND SOUTHEAST INDIANA

CITY           SKY/WX    TMP DP  RH WIND       PRES   REMARKS
BLOOMINGTON    CLOUDY    59  52  77 CALM      30.23S
MADISON *+     MOCLDY    63  46  55 SE3       30.27S

$$



USA.gov is the U.S. government's official web portal to all federal, state and local government web resources and services.